Kendall, FL

10:49 PM EDT on October 19, 2017 (GMT -0400)
Kendall-Tamiami Executive

Weather History for KTMB - December, 2013

Change the Weather History Date:

Wednesday, December 18, 2013

  Actual Average Record
Temperature  
Mean Temperature 67 °F -  
Max Temperature 77 °F 77 °F 84 °F (2012)
Min Temperature 57 °F 51 °F 44 °F (1998)
Cooling Degree Days 2    
Growing Degree Days 17 (Base 50)    
Moisture  
Dew Point 58 °F    
Average Humidity 73    
Maximum Humidity 100    
Minimum Humidity 50    
Precipitation  
Precipitation 0.00 in - - ()
Sea Level Pressure  
Sea Level Pressure 30.19 in    
Wind  
Wind Speed 6 mph (NNE)    
Max Wind Speed 15 mph    
Max Gust Speed 20 mph    
Visibility 10 miles    
Events      
Averages and records for this station are not official NWS values.
T = Trace of Precipitation, MM = Missing Value Source: NWS Daily Summary

Daily Weather History Graph

Daily Weather History Graph

Search for Another Location

Airport or City:

Trip Planner

Search our weather history database for the weather conditions in past years. The results will help you decide how hot, cold, wet, or windy it might be!

Date:

Astronomy

Dec. 18, 2013 Rise Set
Actual Time 7:02 AM EST 5:34 PM EST
Civil Twilight 6:37 AM EST 5:59 PM EST
Nautical Twilight 6:08 AM EST 6:28 PM EST
Astronomical Twilight 5:40 AM EST 6:56 PM EST
Moon 6:57 PM EST (12/18) 7:48 AM EST (12/18)
Length of Visible Light 11h 22m
Length of Day
10h 32m
Full, 98% of the Moon is Illuminated
Dec 18
Full
Dec 25
Last Quarter
Jan 1
New
Jan 7
First Quarter
Jan 15
Full

Hourly Weather History & Observations

Time (EST) Temp. Dew Point Humidity Pressure Visibility Wind Dir Wind Speed Gust Speed Precip Events Conditions
12:53 AM 60.1 °F 60.1 °F 100% 30.16 in 10.0 mi Calm Calm - N/A   Clear
1:53 AM 57.9 °F 57.0 °F 97% 30.15 in 10.0 mi Calm Calm - N/A   Clear
2:53 AM 57.0 °F 57.0 °F 100% 30.15 in 10.0 mi Calm Calm - N/A   Clear
3:53 AM 61.0 °F 59.0 °F 93% 30.16 in 10.0 mi North 8.1 mph - N/A   Clear
4:53 AM 60.1 °F 57.9 °F 93% 30.17 in 10.0 mi North 6.9 mph - N/A   Clear
5:53 AM 59.0 °F 57.9 °F 96% 30.18 in 10.0 mi North 3.5 mph - N/A   Clear
6:53 AM 60.1 °F 59.0 °F 96% 30.19 in 10.0 mi North 9.2 mph - N/A   Clear
7:53 AM 62.1 °F 60.1 °F 93% 30.21 in 10.0 mi North 8.1 mph - N/A   Clear
8:53 AM 66.0 °F 60.1 °F 81% 30.23 in 10.0 mi North 10.4 mph - N/A   Clear
9:53 AM 70.0 °F 59.0 °F 68% 30.24 in 10.0 mi North 10.4 mph - N/A   Clear
10:53 AM 73.0 °F 55.0 °F 53% 30.24 in 10.0 mi North 15.0 mph - N/A   Clear
11:53 AM 75.0 °F 55.0 °F 50% 30.22 in 10.0 mi North 13.8 mph - N/A   Clear
12:53 PM 75.9 °F 55.9 °F 50% 30.19 in 10.0 mi North 11.5 mph - N/A   Clear
1:53 PM 75.9 °F 55.9 °F 50% 30.16 in 10.0 mi North 9.2 mph 19.6 mph N/A   Clear
2:53 PM 77.0 °F 57.9 °F 52% 30.15 in 10.0 mi North 11.5 mph - N/A   Clear
3:53 PM 77.0 °F 57.9 °F 52% 30.16 in 10.0 mi ENE 12.7 mph - N/A   Clear
4:53 PM 75.0 °F 59.0 °F 57% 30.17 in 10.0 mi NE 12.7 mph - N/A   Clear
5:53 PM 72.0 °F 59.0 °F 64% 30.18 in 10.0 mi NE 9.2 mph - N/A   Clear
6:53 PM 71.1 °F 57.9 °F 63% 30.19 in 10.0 mi NNE 10.4 mph - N/A   Clear
7:53 PM 69.1 °F 57.0 °F 65% 30.20 in 10.0 mi North 9.2 mph - N/A   Clear
8:53 PM 66.9 °F 55.9 °F 68% 30.22 in 10.0 mi NNE 10.4 mph - N/A   Clear
9:53 PM 66.0 °F 55.9 °F 70% 30.23 in 10.0 mi NNE 9.2 mph - N/A   Clear
10:53 PM 64.9 °F 55.9 °F 73% 30.23 in 10.0 mi NNE 6.9 mph - N/A   Partly Cloudy
11:53 PM 64.0 °F 57.0 °F 78% 30.22 in 10.0 mi NNE 5.8 mph - N/A   Partly Cloudy